Skip Page Navigation
NASA JPL Caltech
NASA Logo - Jet Propulsion Laboratory + View the NASA Portal
+ Center for Near-Earth Object Studies
JPL Home Earth Solar System Stars & Galaxies Technology
JPL Solar System Dynamics
BODIES ORBITS EPHEMERIDES TOOLS PHYSICAL DATA DISCOVERY FAQ SITE MAP
JPL Small-Body Database Browser
Search: [ help ]  
378160 (2006 WX1)
Classification: Aten [NEO, PHA]          SPK-ID: 2378160
Ephemeris | Orbit Diagram | Orbital Elements | Mission Design | Physical Parameters | Discovery Circumstances | Close-Approach Data ]

[ show orbit diagram ]
Orbital Elements at Epoch 2459200.5 (2020-Dec-17.0) TDB
Reference: JPL 68 (heliocentric ecliptic J2000)
 Element Value Uncertainty (1-sigma)   Units 
e .3002300561174081 2.2955e-07  
a .9165547833449245 3.4867e-09 au
q .641377489306599 2.0835e-07 au
i 11.64373512756003 9.1145e-06 deg
node 327.9911640496738 3.252e-05 deg
peri 290.9366992541553 3.2396e-05 deg
M 181.9831662100903 3.1521e-05 deg
tp 2459358.987363534829
(2021-May-24.48736353)
2.8375e-05 TDB
period 320.5059300171229
0.88
1.8289e-06
5.007e-09
d
yr
n 1.123224147462005 6.4093e-09 deg/d
Q 1.19173207738325 4.5335e-09 au
  Orbit Determination Parameters
   # obs. used (total)      238  
   data-arc span      5238 days (14.34 yr)  
   first obs. used      2006-11-19  
   last obs. used      2021-03-23  
   planetary ephem.      DE441  
   SB-pert. ephem.      SB441-N16  
   condition code      0  
   norm. resid. RMS      .46126  
   source      ORB  
   producer      Otto Matic  
   solution date      2021-Apr-14 10:38:13  

Additional Information
 Earth MOID = .0291792 au 
 Jupiter MOID = 3.89108 au 
 T_jup = 6.461 
[ show covariance matrix ]

Ephemeris | Orbit Diagram | Orbital Elements | Mission Design | Physical Parameters | Discovery Circumstances | Close-Approach Data ]

Physical Parameter Table
Parameter Symbol Value Units Sigma Reference Notes
absolute magnitude H 19.59   n/a MPCxxxxx  

378160 (2006 WX1)          Discovered 2006-Nov-19 by CSS at Catalina
Reference: Last Updated: 2013-11-20

[ hide close-approach data ]
Close-Approach Data   ...sorted by Date/Time (TDB)
Date/Time (TDB) Time Uncertainty
(days_HH:MM)
Body Nominal Distance (au) Minimum Distance (au) Maximum Distance (au) V-relative (km/s) V-infinity (km/s) JD (TDB) Time Uncertainty (minutes) Semi-major axis (km) Semi-minor axis (km) range-LOV angle (deg) N-sigma BP Orbit Ref. Reference Modified
1900-Feb-10 05:07 00:03 Earth 0.0368855780885691 0.0367960199052895 0.0369754333463712 10.3589839647763 10.3520083120537 2415060.713106546 2.84890241354959 6875.81820484508 12.2162572074844 49.4044943559098 337647.235652971 T 68 CATAB v2.0f-lin.ifort 2021-Apr-14 10:38:13 2021-Apr-14 10:38
1903-Jan-12 09:18 00:04 Venus 0.0129963937382726 0.0129876391202291 0.0130052339923323 12.0315479537515 12.0176524133805 2416126.887805512 4.07284351981736 1721.54607684947 6.25337833688675 75.2333492214124 298057.62345709 T 68 CATAB v2.0f-lin.ifort 2021-Apr-14 10:38:13 2021-Apr-14 10:38
1905-Oct-09 07:43 00:03 Earth 0.180177601505782 0.18015941856021 0.180195787699565 13.4940223693788 13.492926426886 2417127.821424369 2.52669164946272 1509.28485028348 11.818644182248 -53.0790696338218 1728412.34534217 T 68 CATAB v2.0f-lin.ifort 2021-Apr-14 10:38:13 2021-Apr-14 10:38
1906-Jun-28 18:51 00:06 Earth 0.390801260313261 0.390796647454475 0.390805873336812 13.2964389803407 13.2959262022857 2417390.285211341 5.96183327713888 461.91075732866 10.5985872774873 60.1600886212766 3211079.65357117 T 68 CATAB v2.0f-lin.ifort 2021-Apr-14 10:38:13 2021-Apr-14 10:38
1907-Feb-09 05:09 00:04 Earth 0.139506005335967 0.139473518351889 0.139538492867912 7.9190521636622 7.91663996873699 2417615.714806689 4.15790106885804 1677.65986813031 8.4270742629402 -15.0301210310677 826146.312816677 T 68 CATAB v2.0f-lin.ifort 2021-Apr-14 10:38:13 2021-Apr-14 10:38
1909-Feb-27 09:33 00:09 Venus 0.0808668518806998 0.0808329418720388 0.0809007662027702 10.1321746827615 10.1295240317507 2418364.897908763 8.51191217053417 1930.62073333898 7.52446202438296 28.8402369556003 743932.447137015 T 68 CATAB v2.0f-lin.ifort 2021-Apr-14 10:38:13 2021-Apr-14 10:38
1912-Oct-15 01:01 00:02 Earth 0.259598705988928 0.259574672619263 0.259622740278216 16.6404957324066 16.6398789220993 2419690.542394193 2.06367435107925 1424.79760743686 12.0700159636146 -32.7432197545515 1600714.08929706 T 68 CATAB v2.0f-lin.ifort 2021-Apr-14 10:38:13 2021-Apr-14 10:38
1913-Jul-13 01:36 00:06 Earth 0.368292124373025 0.368285332565197 0.368298916451626 12.7165658360603 12.7159969048013 2419961.566507145 5.53444370123359 602.364901750035 8.10556944587045 55.7979650630243 3692288.76366146 T 68 CATAB v2.0f-lin.ifort 2021-Apr-14 10:38:13 2021-Apr-14 10:38
1914-Jan-18 20:26 00:10 Earth 0.229627230767824 0.229607915540321 0.229646546001996 7.63656800905305 7.63504839270397 2420151.351602970 9.72830036487984 965.147317001188 13.867836732009 -3.72332546419011 147538.275839499 T 68 CATAB v2.0f-lin.ifort 2021-Apr-14 10:38:13 2021-Apr-14 10:38
1915-Apr-06 19:32 00:12 Venus 0.143847506254391 0.143829207239586 0.143865811095408 9.85330863404814 9.85177642405651 2420594.314197422 11.9577837255603 1708.09193797806 11.665256604701 57.7043925081769 1358527.27790635 T 68 CATAB v2.0f-lin.ifort 2021-Apr-14 10:38:13 2021-Apr-14 10:38
1919-Oct-21 05:21 00:01 Earth 0.354080254387996 0.354061999093582 0.354098509850752 19.8651688896594 19.8647900787068 2422252.723152142 1.30046353541819 988.400748662678 12.3329427892679 -22.9316294861283 1524118.83571334 T 68 CATAB v2.0f-lin.ifort 2021-Apr-14 10:38:13 2021-Apr-14 10:38
1920-Jul-28 04:05 00:04 Earth 0.335165989446834 0.335159545681026 0.335172433529191 11.7236620026605 11.7229838902615 2422533.669917937 4.00152034138119 605.969619637574 6.73250200477219 57.9849564737498 3778872.42144411 T 68 CATAB v2.0f-lin.ifort 2021-Apr-14 10:38:13 2021-Apr-14 10:38
1920-Dec-26 10:22 00:06 Earth 0.279554896060044 0.279548656445281 0.279561135678906 7.85778418204374 7.85657113210278 2422684.932249574 5.99317289793584 315.69922418604 13.0466719957314 -9.75453959071866 543852.179026873 T 68 CATAB v2.0f-lin.ifort 2021-Apr-14 10:38:13 2021-Apr-14 10:38
1921-Apr-13 19:26 00:06 Earth 0.336119104561991 0.336109354039983 0.33612885512479 9.0356821127354 9.03480474976474 2422793.310047136 5.65483615341181 520.13253603908 15.6265257760116 20.8651443033635 526312.661360566 T 68 CATAB v2.0f-lin.ifort 2021-Apr-14 10:38:13 2021-Apr-14 10:38
1922-Jan-26 09:18 < 00:01 Earth 0.394076447775169 0.394057650917564 0.394095244633378 22.3738225148963 22.373520314784 2423080.887832206 0.95484568336343 937.633300115913 13.9777275409457 -1.50513975294777 114655.887718417 T 68 CATAB v2.0f-lin.ifort 2021-Apr-14 10:38:13 2021-Apr-14 10:38
1926-Oct-26 03:27 < 00:01 Earth 0.452416781900432 0.452407429675072 0.452426134145799 23.1068290639546 23.1065741839923 2424814.643801166 0.56142282849605 489.902912285725 12.5647553826786 -17.844219392696 1505589.77580496 T 68 CATAB v2.0f-lin.ifort 2021-Apr-14 10:38:13 2021-Apr-14 10:38
1927-May-30 01:48 < 00:01 Venus 0.141841272909799 0.141839595767028 0.141842951228875 11.619731433026 11.6184137988232 2425030.575060491 0.139114298684654 655.408018563434 11.2398273087457 82.737500997413 1982168.61217711 T 68 CATAB v2.0f-lin.ifort 2021-Apr-14 10:38:13 2021-Apr-14 10:38
1927-Aug-14 15:12 00:02 Earth 0.290970980097366 0.290967065836344 0.290974894574233 10.403531426304 10.4026511879869 2425107.133541530 2.09915258555223 440.966270671791 6.30433284184143 63.7426326132698 3133659.09828604 T 68 CATAB v2.0f-lin.ifort 2021-Apr-14 10:38:13 2021-Apr-14 10:38
1927-Dec-04 17:44 00:03 Earth 0.293967883202559 0.293967483134473 0.293968283271932 7.52983003059002 7.52862620930995 2425219.238608394 3.33683189143679 46.7674746777497 13.691919445232 -71.0343300626064 1729973.42105559 T 68 CATAB v2.0f-lin.ifort 2021-Apr-14 10:38:13 2021-Apr-14 10:38
1928-May-02 09:36 00:02 Earth 0.375050656846372 0.375047576396382 0.375053737297918 10.9901510867147 10.9895046417807 2425368.899874552 1.94722673362347 158.281843439381 10.9611497881766 -14.0410151719643 690136.09894623 T 68 CATAB v2.0f-lin.ifort 2021-Apr-14 10:38:13 2021-Apr-14 10:38
1929-Jan-30 12:38 < 00:01 Earth 0.288850703700017 0.288841758320258 0.288859649081615 19.138394246341 19.1379122553743 2425642.026388178 0.34863614921489 447.550675383096 12.2721186518017 -4.67884014732338 272282.639563638 T 68 CATAB v2.0f-lin.ifort 2021-Apr-14 10:38:13 2021-Apr-14 10:38
1934-Sep-01 02:36 < 00:01 Earth 0.239186885394677 0.239185781130941 0.239187989670813 9.10533531707416 9.10411180508604 2427681.608505941 0.541927435901854 104.036521104495 12.7063452132927 58.7478548432526 1478206.45236927 T 68 CATAB v2.0f-lin.ifort 2021-Apr-14 10:38:13 2021-Apr-14 10:38
1934-Nov-01 18:53 00:02 Earth 0.272801752283384 0.272800773753467 0.272802730818759 6.13965608928871 6.13806506272265 2427743.286874420 2.11470836471098 82.5957516359766 19.8747393650525 56.3152919494283 961291.320023051 T 68 CATAB v2.0f-lin.ifort 2021-Apr-14 10:38:13 2021-Apr-14 10:38
1935-May-17 19:51 < 00:01 Earth 0.395284370772563 0.395283776083212 0.395284965461981 12.2448990709238 12.2443485709958 2427940.326979007 0.542635652495184 31.2105522614611 14.9445350732174 -20.8310288915767 1415094.67615438 T 68 CATAB v2.0f-lin.ifort 2021-Apr-14 10:38:13 2021-Apr-14 10:38
1936-Feb-04 05:49 < 00:01 Earth 0.190715041727159 0.19071253991432 0.19071754354002 16.1733633020744 16.1724994514217 2428202.742504967 0.3198018118717 124.805300922362 25.1285424055036 -1.73578187453907 205743.370826929 T 68 CATAB v2.0f-lin.ifort 2021-Apr-14 10:38:13 2021-Apr-14 10:38
1938-Feb-14 09:27 < 00:01 Venus 0.146446585811595 0.146438070730796 0.146455100904032 17.7737463724299 17.7729120749941 2428943.893930601 0.620664286449098 429.575770813846 6.2146905128621 -8.72999675604267 496922.726468873 T 68 CATAB v2.0f-lin.ifort 2021-Apr-14 10:38:13 2021-Apr-14 10:38
